Time,TemperatureF,DewpointF,PressureIn,WindDirection,WindDirectionDegrees,WindSpeedMPH,WindSpeedGustMPH,Humidity,HourlyPrecipIn,Conditions,Clouds,dailyrainin,SolarRadiationWatts/m^2,SoftwareType,DateUTC
2013-07-08 00:02:00,77.0,72.5,29.96,SSW,209,0.0,0.0,86,0.00,,,0.01,0,Wunderground v.1.15,2013-07-08 04:02:00,
2013-07-08 00:04:00,77.0,72.5,29.95,SSW,209,0.0,0.0,86,0.00,,,0.01,0,Wunderground v.1.15,2013-07-08 04:04:00,
2013-07-08 00:06:00,76.8,72.3,29.95,SSW,209,0.0,0.0,86,0.00,,,0.01,0,Wunderground v.1.15,2013-07-08 04:06:00,
2013-07-08 00:12:00,76.8,72.6,29.95,SSW,209,0.0,0.0,87,0.00,,,0.01,0,Wunderground v.1.15,2013-07-08 04:12:00,
2013-07-08 00:18:00,76.7,72.5,29.95,SSW,209,0.0,0.0,87,0.00,,,0.01,0,Wunderground v.1.15,2013-07-08 04:18:00,
2013-07-08 00:24:00,76.7,72.9,29.95,SSW,209,0.0,0.0,88,0.00,,,0.01,0,Wunderground v.1.15,2013-07-08 04:24:00,
2013-07-08 00:30:00,76.5,72.7,29.95,SSW,209,0.0,0.0,88,0.00,,,0.01,0,Wunderground v.1.15,2013-07-08 04:30:00,
2013-07-08 00:36:00,76.3,72.8,29.94,SSW,209,0.0,0.0,89,0.00,,,0.01,0,Wunderground v.1.15,2013-07-08 04:36:00,
2013-07-08 00:42:00,76.3,72.8,29.94,SSW,209,0.0,0.0,89,0.00,,,0.01,0,Wunderground v.1.15,2013-07-08 04:42:00,
2013-07-08 00:48:00,76.3,72.8,29.94,SSW,209,0.0,0.0,89,0.00,,,0.01,0,Wunderground v.1.15,2013-07-08 04:48:00,
2013-07-08 00:54:00,76.1,72.6,29.94,SSW,209,0.0,0.0,89,0.00,,,0.01,0,Wunderground v.1.15,2013-07-08 04:54:00,
2013-07-08 01:00:00,76.0,72.9,29.94,SSW,209,0.0,0.0,90,0.00,,,0.01,0,Wunderground v.1.15,2013-07-08 05:00:00,
2013-07-08 01:06:00,76.0,72.9,29.94,SSW,209,0.0,0.0,90,0.00,,,0.01,0,Wunderground v.1.15,2013-07-08 05:06:00,
2013-07-08 01:12:00,75.8,72.7,29.94,SSW,209,0.0,0.0,90,0.00,,,0.01,0,Wunderground v.1.15,2013-07-08 05:12:00,
2013-07-08 01:18:00,75.8,72.7,29.94,SSW,209,0.0,0.0,90,0.00,,,0.01,0,Wunderground v.1.15,2013-07-08 05:18:00,
2013-07-08 01:24:00,75.6,72.5,29.94,SSW,209,0.0,0.0,90,0.00,,,0.01,0,Wunderground v.1.15,2013-07-08 05:24:00,
2013-07-08 01:30:00,75.6,72.5,29.94,SSW,209,0.0,0.0,90,0.00,,,0.01,0,Wunderground v.1.15,2013-07-08 05:30:00,
2013-07-08 01:36:00,75.4,72.6,29.95,SSW,209,0.0,0.0,91,0.00,,,0.01,0,Wunderground v.1.15,2013-07-08 05:36:00,
2013-07-08 01:42:00,75.6,72.8,29.95,SSW,209,0.0,0.0,91,0.00,,,0.01,0,Wunderground v.1.15,2013-07-08 05:42:00,
2013-07-08 01:48:00,75.8,73.0,29.96,SSW,209,0.0,0.0,91,0.00,,,0.01,0,Wunderground v.1.15,2013-07-08 05:48:00,
2013-07-08 01:54:00,76.0,73.2,29.96,SSW,209,0.0,0.0,91,0.00,,,0.01,0,Wunderground v.1.15,2013-07-08 05:54:00,
2013-07-08 02:00:00,76.0,73.2,29.96,SSW,209,0.0,0.0,91,0.00,,,0.01,0,Wunderground v.1.15,2013-07-08 06:00:00,
2013-07-08 02:06:00,76.0,73.2,29.96,SSW,209,0.0,1.0,91,0.00,,,0.01,0,Wunderground v.1.15,2013-07-08 06:06:00,
2013-07-08 02:12:00,76.0,73.2,29.96,SSW,213,0.0,2.0,91,0.00,,,0.01,0,Wunderground v.1.15,2013-07-08 06:12:00,
2013-07-08 02:18:00,76.0,73.2,29.95,SSW,213,0.0,2.0,91,0.00,,,0.01,0,Wunderground v.1.15,2013-07-08 06:18:00,
2013-07-08 02:24:00,76.1,73.3,29.95,SSW,213,0.0,1.0,91,0.00,,,0.01,0,Wunderground v.1.15,2013-07-08 06:24:00,
2013-07-08 02:30:00,76.1,73.3,29.95,SSW,213,0.0,1.0,91,0.00,,,0.01,0,Wunderground v.1.15,2013-07-08 06:30:00,
2013-07-08 02:36:00,76.1,73.3,29.95,SSW,213,0.0,1.0,91,0.00,,,0.01,0,Wunderground v.1.15,2013-07-08 06:36:00,
2013-07-08 02:42:00,76.1,73.3,29.95,SSW,213,1.0,2.0,91,0.00,,,0.01,0,Wunderground v.1.15,2013-07-08 06:42:00,
2013-07-08 02:48:00,76.1,73.3,29.95,South,177,1.0,2.0,91,0.00,,,0.01,0,Wunderground v.1.15,2013-07-08 06:48:00,
2013-07-08 02:54:00,76.1,73.3,29.95,South,178,0.0,4.0,91,0.00,,,0.01,0,Wunderground v.1.15,2013-07-08 06:54:00,
2013-07-08 03:00:00,76.1,73.6,29.95,SW,221,0.0,1.0,92,0.00,,,0.01,0,Wunderground v.1.15,2013-07-08 07:00:00,
2013-07-08 03:06:00,76.1,73.6,29.94,South,173,1.0,4.0,92,0.00,,,0.01,0,Wunderground v.1.15,2013-07-08 07:06:00,
2013-07-08 03:12:00,76.1,73.6,29.94,South,186,2.0,4.0,92,0.00,,,0.01,0,Wunderground v.1.15,2013-07-08 07:12:00,
2013-07-08 03:18:00,76.1,73.6,29.94,South,191,1.0,4.0,92,0.00,,,0.01,0,Wunderground v.1.15,2013-07-08 07:18:00,
2013-07-08 03:24:00,76.3,73.5,29.94,South,188,2.0,4.0,91,0.00,,,0.01,0,Wunderground v.1.15,2013-07-08 07:24:00,
2013-07-08 03:30:00,76.3,73.5,29.94,South,180,1.0,1.0,91,0.00,,,0.01,0,Wunderground v.1.15,2013-07-08 07:30:00,
2013-07-08 03:36:00,76.3,73.5,29.94,SSW,198,1.0,4.0,91,0.00,,,0.01,0,Wunderground v.1.15,2013-07-08 07:36:00,
2013-07-08 03:42:00,76.3,73.5,29.94,West,261,1.0,4.0,91,0.00,,,0.01,0,Wunderground v.1.15,2013-07-08 07:42:00,
2013-07-08 03:48:00,76.3,73.5,29.94,SW,215,0.0,4.0,91,0.00,,,0.01,0,Wunderground v.1.15,2013-07-08 07:48:00,
2013-07-08 03:54:00,76.3,73.5,29.94,SW,226,0.0,4.0,91,0.00,,,0.01,0,Wunderground v.1.15,2013-07-08 07:54:00,
2013-07-08 04:00:00,76.3,73.5,29.94,SW,226,0.0,4.0,91,0.00,,,0.01,0,Wunderground v.1.15,2013-07-08 08:00:00,
2013-07-08 04:06:00,76.1,73.3,29.93,SW,225,0.0,4.0,91,0.00,,,0.01,0,Wunderground v.1.15,2013-07-08 08:06:00,
2013-07-08 04:12:00,76.1,73.3,29.93,SW,225,0.0,1.0,91,0.00,,,0.01,0,Wunderground v.1.15,2013-07-08 08:12:00,
2013-07-08 04:18:00,76.0,73.2,29.94,SW,225,0.0,1.0,91,0.00,,,0.01,0,Wunderground v.1.15,2013-07-08 08:18:00,
2013-07-08 04:24:00,76.0,73.5,29.94,SW,226,0.0,1.0,92,0.00,,,0.01,0,Wunderground v.1.15,2013-07-08 08:24:00,
2013-07-08 04:30:00,75.8,73.3,29.94,South,185,0.0,0.0,92,0.00,,,0.01,0,Wunderground v.1.15,2013-07-08 08:30:00,
2013-07-08 04:36:00,75.8,73.3,29.94,South,190,0.0,1.0,92,0.00,,,0.01,0,Wunderground v.1.15,2013-07-08 08:36:00,
2013-07-08 04:42:00,75.8,73.3,29.94,South,190,0.0,0.0,92,0.00,,,0.01,0,Wunderground v.1.15,2013-07-08 08:42:00,
2013-07-08 04:48:00,75.8,73.3,29.94,WSW,258,1.0,1.0,92,0.00,,,0.01,0,Wunderground v.1.15,2013-07-08 08:48:00,
2013-07-08 04:54:00,75.8,73.3,29.94,SW,229,1.0,1.0,92,0.00,,,0.01,0,Wunderground v.1.15,2013-07-08 08:54:00,
2013-07-08 05:00:00,75.8,73.3,29.94,SW,228,0.0,0.0,92,0.00,,,0.01,0,Wunderground v.1.15,2013-07-08 09:00:00,
2013-07-08 05:06:00,75.8,73.3,29.94,SSW,206,0.0,3.0,92,0.00,,,0.01,0,Wunderground v.1.15,2013-07-08 09:06:00,
2013-07-08 05:12:00,75.8,73.3,29.94,SSW,206,0.0,2.0,92,0.00,,,0.01,0,Wunderground v.1.15,2013-07-08 09:12:00,
2013-07-08 05:18:00,75.8,73.3,29.94,SSW,196,0.0,2.0,92,0.00,,,0.00,0,Wunderground v.1.15,2013-07-08 09:18:00,
2013-07-08 05:24:00,76.0,73.5,29.94,SSW,196,0.0,2.0,92,0.00,,,0.00,5,Wunderground v.1.15,2013-07-08 09:24:00,
2013-07-08 05:30:00,76.0,73.2,29.94,South,186,0.0,2.0,91,0.00,,,0.00,7,Wunderground v.1.15,2013-07-08 09:30:00,
2013-07-08 05:36:00,76.0,73.2,29.94,SSW,207,1.0,2.0,91,0.00,,,0.00,12,Wunderground v.1.15,2013-07-08 09:36:00,
2013-07-08 05:42:00,76.1,73.3,29.94,SSW,196,0.0,2.0,91,0.00,,,0.00,23,Wunderground v.1.15,2013-07-08 09:42:00,
2013-07-08 05:48:00,76.1,73.3,29.94,SSW,196,0.0,2.0,91,0.00,,,0.00,33,Wunderground v.1.15,2013-07-08 09:48:00,
2013-07-08 05:54:00,76.1,73.3,29.94,SSW,196,0.0,2.0,91,0.00,,,0.00,40,Wunderground v.1.15,2013-07-08 09:54:00,
2013-07-08 06:00:00,76.1,73.3,29.94,SW,219,0.0,2.0,91,0.00,,,0.00,46,Wunderground v.1.15,2013-07-08 10:00:00,
2013-07-08 06:06:00,76.1,73.3,29.95,SW,218,0.0,2.0,91,0.00,,,0.00,42,Wunderground v.1.15,2013-07-08 10:06:00,
2013-07-08 06:12:00,76.1,73.3,29.95,SW,218,0.0,1.0,91,0.00,,,0.00,42,Wunderground v.1.15,2013-07-08 10:12:00,
2013-07-08 06:18:00,76.1,73.3,29.95,SW,218,0.0,1.0,91,0.00,,,0.00,46,Wunderground v.1.15,2013-07-08 10:18:00,
2013-07-08 06:24:00,76.3,73.5,29.95,SW,218,0.0,1.0,91,0.00,,,0.00,148,Wunderground v.1.15,2013-07-08 10:24:00,
2013-07-08 06:30:00,76.5,73.3,29.95,SW,218,0.0,1.0,90,0.00,,,0.00,165,Wunderground v.1.15,2013-07-08 10:30:00,
2013-07-08 06:36:00,76.7,73.5,29.95,WSW,246,0.0,2.0,90,0.00,,,0.00,176,Wunderground v.1.15,2013-07-08 10:36:00,
2013-07-08 06:42:00,77.0,73.5,29.95,SW,233,1.0,1.0,89,0.00,,,0.00,146,Wunderground v.1.15,2013-07-08 10:42:00,
2013-07-08 06:48:00,77.2,73.7,29.95,SW,233,0.0,1.0,89,0.00,,,0.00,134,Wunderground v.1.15,2013-07-08 10:48:00,
2013-07-08 06:54:00,77.4,73.6,29.95,WSW,251,1.0,7.0,88,0.00,,,0.00,209,Wunderground v.1.15,2013-07-08 10:54:00,
2013-07-08 07:00:00,77.6,73.4,29.95,SW,236,1.0,2.0,87,0.00,,,0.00,176,Wunderground v.1.15,2013-07-08 11:00:00,
2013-07-08 07:06:00,77.7,73.2,29.95,West,267,1.0,3.0,86,0.00,,,0.00,264,Wunderground v.1.15,2013-07-08 11:06:00,
2013-07-08 07:12:00,78.1,73.6,29.95,WNW,290,2.0,6.0,86,0.00,,,0.00,278,Wunderground v.1.15,2013-07-08 11:12:00,
2013-07-08 07:18:00,78.5,73.3,29.96,South,182,2.0,6.0,84,0.00,,,0.00,304,Wunderground v.1.15,2013-07-08 11:18:00,
2013-07-08 07:24:00,78.6,73.0,29.96,West,273,2.0,6.0,83,0.00,,,0.00,288,Wunderground v.1.15,2013-07-08 11:24:00,
2013-07-08 07:30:00,78.8,72.8,29.96,West,275,2.0,3.0,82,0.00,,,0.00,316,Wunderground v.1.15,2013-07-08 11:30:00,
2013-07-08 07:36:00,79.6,73.3,29.96,West,274,1.0,3.0,81,0.00,,,0.00,334,Wunderground v.1.15,2013-07-08 11:36:00,
2013-07-08 07:42:00,79.8,72.7,29.96,South,175,1.0,3.0,79,0.00,,,0.00,387,Wunderground v.1.15,2013-07-08 11:42:00,
2013-07-08 07:48:00,80.1,73.0,29.96,WSW,256,1.0,3.0,79,0.00,,,0.00,410,Wunderground v.1.15,2013-07-08 11:48:00,
2013-07-08 07:54:00,80.3,72.8,29.96,South,189,1.0,3.0,78,0.00,,,0.00,429,Wunderground v.1.15,2013-07-08 11:54:00,
2013-07-08 08:00:00,80.5,73.0,29.96,WNW,286,1.0,1.0,78,0.00,,,0.00,359,Wunderground v.1.15,2013-07-08 12:00:00,
2013-07-08 08:06:00,80.5,73.0,29.97,West,277,1.0,6.0,78,0.00,,,0.00,162,Wunderground v.1.15,2013-07-08 12:06:00,
2013-07-08 08:12:00,80.5,73.0,29.97,West,267,2.0,6.0,78,0.00,,,0.00,443,Wunderground v.1.15,2013-07-08 12:12:00,
2013-07-08 08:18:00,80.5,72.6,29.97,West,276,2.0,6.0,77,0.00,,,0.00,367,Wunderground v.1.15,2013-07-08 12:18:00,
2013-07-08 08:24:00,80.3,72.8,29.97,West,265,2.0,6.0,78,0.00,,,0.00,473,Wunderground v.1.15,2013-07-08 12:24:00,
2013-07-08 08:30:00,80.5,72.6,29.97,NW,315,3.0,3.0,77,0.00,,,0.00,566,Wunderground v.1.15,2013-07-08 12:30:00,
2013-07-08 08:36:00,81.2,72.5,29.97,WNW,287,2.0,7.0,75,0.00,,,0.00,598,Wunderground v.1.15,2013-07-08 12:36:00,
2013-07-08 08:38:00,81.2,72.5,29.97,WSW,252,2.0,7.0,75,0.00,,,0.00,622,Wunderground v.1.15,2013-07-08 12:38:00,
2013-07-08 08:44:00,81.2,72.5,29.97,NW,311,3.0,8.0,75,0.00,,,0.00,323,Wunderground v.1.15,2013-07-08 12:44:00,
2013-07-08 08:50:00,81.4,73.1,29.97,WNW,294,2.0,6.0,76,0.00,,,0.00,250,Wunderground v.1.15,2013-07-08 12:50:00,
2013-07-08 08:56:00,81.4,73.1,29.97,West,265,2.0,6.0,76,0.00,,,0.00,292,Wunderground v.1.15,2013-07-08 12:56:00,
2013-07-08 09:02:00,81.2,72.9,29.97,NW,309,1.0,3.0,76,0.00,,,0.00,309,Wunderground v.1.15,2013-07-08 13:02:00,
2013-07-08 09:08:00,81.2,73.3,29.97,NW,309,1.0,6.0,77,0.00,,,0.00,415,Wunderground v.1.15,2013-07-08 13:08:00,
2013-07-08 09:14:00,81.4,73.1,29.97,West,259,1.0,2.0,76,0.00,,,0.00,649,Wunderground v.1.15,2013-07-08 13:14:00,
2013-07-08 09:20:00,81.6,73.3,29.97,WNW,292,2.0,2.0,76,0.00,,,0.00,469,Wunderground v.1.15,2013-07-08 13:20:00,
2013-07-08 09:26:00,81.6,73.3,29.97,NW,304,2.0,4.0,76,0.00,,,0.00,371,Wunderground v.1.15,2013-07-08 13:26:00,
2013-07-08 09:32:00,81.4,73.5,29.97,WSW,237,2.0,6.0,77,0.00,,,0.00,272,Wunderground v.1.15,2013-07-08 13:32:00,
2013-07-08 09:38:00,81.8,73.9,29.97,West,267,1.0,6.0,77,0.00,,,0.00,369,Wunderground v.1.15,2013-07-08 13:38:00,
2013-07-08 09:44:00,81.8,73.5,29.97,West,267,2.0,4.0,76,0.00,,,0.00,360,Wunderground v.1.15,2013-07-08 13:44:00,
2013-07-08 09:50:00,81.8,73.5,29.97,West,267,1.0,2.0,76,0.00,,,0.00,649,Wunderground v.1.15,2013-07-08 13:50:00,
2013-07-08 09:56:00,82.4,73.7,29.97,SSE,167,1.0,2.0,75,0.00,,,0.00,357,Wunderground v.1.15,2013-07-08 13:56:00,
2013-07-08 10:02:00,82.8,73.7,29.97,WNW,298,1.0,4.0,74,0.00,,,0.00,290,Wunderground v.1.15,2013-07-08 14:02:00,
2013-07-08 10:08:00,83.2,74.0,29.97,WNW,296,2.0,7.0,74,0.00,,,0.00,413,Wunderground v.1.15,2013-07-08 14:08:00,
2013-07-08 10:14:00,83.2,73.6,29.97,WSW,248,2.0,7.0,73,0.00,,,0.00,441,Wunderground v.1.15,2013-07-08 14:14:00,
2013-07-08 10:20:00,83.4,73.8,29.98,West,270,1.0,7.0,73,0.00,,,0.00,501,Wunderground v.1.15,2013-07-08 14:20:00,
2013-07-08 10:26:00,83.4,73.4,29.98,SSW,208,2.0,7.0,72,0.00,,,0.00,902,Wunderground v.1.15,2013-07-08 14:26:00,
2013-07-08 10:32:00,83.8,73.8,29.98,SW,229,2.0,7.0,72,0.00,,,0.00,619,Wunderground v.1.15,2013-07-08 14:32:00,
2013-07-08 10:38:00,85.1,74.2,29.98,SW,230,1.0,7.0,70,0.00,,,0.00,1053,Wunderground v.1.15,2013-07-08 14:38:00,
2013-07-08 10:44:00,84.9,73.2,29.98,WNW,294,1.0,7.0,68,0.00,,,0.00,236,Wunderground v.1.15,2013-07-08 14:44:00,
2013-07-08 10:50:00,84.7,73.8,29.97,WNW,294,1.0,1.0,70,0.00,,,0.00,563,Wunderground v.1.15,2013-07-08 14:50:00,
2013-07-08 10:56:00,84.9,73.6,29.97,WNW,294,1.0,7.0,69,0.00,,,0.00,392,Wunderground v.1.15,2013-07-08 14:56:00,
2013-07-08 11:02:00,84.5,73.6,29.97,NW,310,2.0,7.0,70,0.00,,,0.00,253,Wunderground v.1.15,2013-07-08 15:02:00,
2013-07-08 11:08:00,83.8,73.8,29.97,WSW,255,3.0,7.0,72,0.00,,,0.00,309,Wunderground v.1.15,2013-07-08 15:08:00,
2013-07-08 11:14:00,84.1,73.7,29.97,WSW,255,1.0,6.0,71,0.00,,,0.00,1023,Wunderground v.1.15,2013-07-08 15:14:00,
2013-07-08 11:18:00,84.9,73.2,29.98,WSW,255,0.0,6.0,68,0.00,,,0.00,234,Wunderground v.1.15,2013-07-08 15:18:00,
2013-07-08 11:24:00,83.8,73.4,29.98,ENE,64,2.0,6.0,71,0.00,,,0.00,63,Wunderground v.1.15,2013-07-08 15:24:00,
2013-07-08 11:30:00,82.8,72.8,29.98,NE,46,3.0,3.0,72,0.00,,,0.00,102,Wunderground v.1.15,2013-07-08 15:30:00,
2013-07-08 11:36:00,82.4,72.5,29.98,ENE,60,2.0,6.0,72,0.00,,,0.00,132,Wunderground v.1.15,2013-07-08 15:36:00,
2013-07-08 11:42:00,82.4,72.5,29.98,ENE,72,1.0,6.0,72,0.00,,,0.00,102,Wunderground v.1.15,2013-07-08 15:42:00,
2013-07-08 11:48:00,82.2,72.3,29.99,East,88,1.0,6.0,72,0.00,,,0.00,169,Wunderground v.1.15,2013-07-08 15:48:00,
2013-07-08 11:54:00,82.0,72.1,29.99,East,81,1.0,6.0,72,0.00,,,0.00,79,Wunderground v.1.15,2013-07-08 15:54:00,
2013-07-08 12:00:00,81.2,71.7,29.99,SSE,156,1.0,1.0,73,0.00,,,0.00,67,Wunderground v.1.15,2013-07-08 16:00:00,
2013-07-08 12:06:00,81.1,71.6,30.00,SE,133,1.0,6.0,73,0.00,,,0.00,172,Wunderground v.1.15,2013-07-08 16:06:00,
2013-07-08 12:12:00,81.2,71.7,30.00,North,355,0.0,1.0,73,0.00,,,0.00,394,Wunderground v.1.15,2013-07-08 16:12:00,
2013-07-08 12:18:00,82.2,71.9,29.99,SSE,153,0.0,4.0,71,0.00,,,0.00,580,Wunderground v.1.15,2013-07-08 16:18:00,
2013-07-08 12:24:00,82.6,71.8,29.99,South,169,1.0,4.0,70,0.00,,,0.00,480,Wunderground v.1.15,2013-07-08 16:24:00,
2013-07-08 12:30:00,83.4,72.2,29.99,NE,42,2.0,5.0,69,0.00,,,0.00,940,Wunderground v.1.15,2013-07-08 16:30:00,
2013-07-08 12:36:00,82.8,70.7,30.00,North,360,2.0,7.0,67,0.00,,,0.00,302,Wunderground v.1.15,2013-07-08 16:36:00,
2013-07-08 12:42:00,81.6,71.3,30.00,NE,42,4.0,9.0,71,0.00,,,0.00,193,Wunderground v.1.15,2013-07-08 16:42:00,
2013-07-08 12:48:00,80.9,71.0,29.99,NNE,13,3.0,9.0,72,0.00,,,0.00,258,Wunderground v.1.15,2013-07-08 16:48:00,
2013-07-08 12:54:00,81.1,71.6,29.99,ENE,61,3.0,5.0,73,0.00,,,0.00,846,Wunderground v.1.15,2013-07-08 16:54:00,
2013-07-08 13:00:00,81.6,71.3,29.99,NE,52,4.0,4.0,71,0.00,,,0.00,1018,Wunderground v.1.15,2013-07-08 17:00:00,
2013-07-08 13:06:00,82.8,71.6,29.99,NE,46,3.0,5.0,69,0.00,,,0.00,1051,Wunderground v.1.15,2013-07-08 17:06:00,
2013-07-08 13:12:00,83.4,71.7,29.99,NNE,18,3.0,7.0,68,0.00,,,0.00,1037,Wunderground v.1.15,2013-07-08 17:12:00,
2013-07-08 13:18:00,83.6,71.9,29.99,ENE,61,4.0,7.0,68,0.00,,,0.00,1129,Wunderground v.1.15,2013-07-08 17:18:00,
2013-07-08 13:24:00,83.2,72.0,29.99,ENE,67,4.0,7.0,69,0.00,,,0.00,441,Wunderground v.1.15,2013-07-08 17:24:00,
2013-07-08 13:30:00,82.8,71.2,29.99,NNW,348,4.0,5.0,68,0.00,,,0.00,269,Wunderground v.1.15,2013-07-08 17:30:00,
2013-07-08 13:36:00,81.8,71.5,30.00,NNE,20,4.0,5.0,71,0.00,,,0.00,216,Wunderground v.1.15,2013-07-08 17:36:00,
2013-07-08 13:42:00,81.8,71.9,30.00,NE,38,2.0,5.0,72,0.00,,,0.00,445,Wunderground v.1.15,2013-07-08 17:42:00,
2013-07-08 13:48:00,81.1,70.8,29.99,NE,35,3.0,5.0,71,0.00,,,0.00,350,Wunderground v.1.15,2013-07-08 17:48:00,
2013-07-08 13:54:00,81.1,71.2,29.99,NE,38,4.0,7.0,72,0.00,,,0.00,371,Wunderground v.1.15,2013-07-08 17:54:00,
2013-07-08 14:00:00,81.4,70.7,29.99,NE,55,3.0,3.0,70,0.00,,,0.00,410,Wunderground v.1.15,2013-07-08 18:00:00,
2013-07-08 14:06:00,81.6,70.4,30.00,ENE,76,3.0,7.0,69,0.00,,,0.00,935,Wunderground v.1.15,2013-07-08 18:06:00,
2013-07-08 14:12:00,82.0,70.4,30.00,ENE,65,4.0,5.0,68,0.00,,,0.00,526,Wunderground v.1.15,2013-07-08 18:12:00,
2013-07-08 14:18:00,81.2,70.5,30.00,NE,49,5.0,9.0,70,0.00,,,0.00,258,Wunderground v.1.15,2013-07-08 18:18:00,
2013-07-08 14:24:00,81.2,70.5,30.00,NNE,31,4.0,9.0,70,0.00,,,0.00,250,Wunderground v.1.15,2013-07-08 18:24:00,
2013-07-08 14:30:00,81.4,71.1,30.00,NW,304,2.0,2.0,71,0.00,,,0.00,598,Wunderground v.1.15,2013-07-08 18:30:00,
2013-07-08 14:36:00,82.6,71.8,30.00,NNE,20,1.0,9.0,70,0.00,,,0.00,1076,Wunderground v.1.15,2013-07-08 18:36:00,
2013-07-08 14:42:00,82.2,71.9,30.00,NE,35,2.0,5.0,71,0.00,,,0.00,332,Wunderground v.1.15,2013-07-08 18:42:00,
2013-07-08 14:52:00,81.8,71.5,30.00,NNE,17,3.0,9.0,71,0.00,,,0.00,376,Wunderground v.1.15,2013-07-08 18:52:00,
2013-07-08 14:58:00,82.0,71.2,30.00,South,184,3.0,10.0,70,0.00,,,0.00,784,Wunderground v.1.15,2013-07-08 18:58:00,
2013-07-08 15:04:00,82.4,70.8,30.00,NE,37,2.0,9.0,68,0.00,,,0.00,134,Wunderground v.1.15,2013-07-08 19:04:00,
2013-07-08 15:12:00,83.4,70.4,30.00,NNE,30,1.0,4.0,65,0.00,,,0.00,773,Wunderground v.1.15,2013-07-08 19:12:00,
2013-07-08 15:20:00,84.5,69.6,29.99,NE,46,1.0,4.0,61,0.00,,,0.00,758,Wunderground v.1.15,2013-07-08 19:20:00,
2013-07-08 15:26:00,84.0,70.0,29.99,NE,53,2.0,4.0,63,0.00,,,0.00,735,Wunderground v.1.15,2013-07-08 19:26:00,
2013-07-08 15:34:00,83.8,69.9,30.00,South,173,2.0,4.0,63,0.00,,,0.00,708,Wunderground v.1.15,2013-07-08 19:34:00,
2013-07-08 15:40:00,83.8,69.9,30.00,NE,36,1.0,4.0,63,0.00,,,0.00,693,Wunderground v.1.15,2013-07-08 19:40:00,
2013-07-08 15:46:00,84.1,69.7,30.00,West,273,1.0,6.0,62,0.00,,,0.00,684,Wunderground v.1.15,2013-07-08 19:46:00,
2013-07-08 15:52:00,84.0,69.6,30.00,SE,134,2.0,4.0,62,0.00,,,0.00,666,Wunderground v.1.15,2013-07-08 19:52:00,
2013-07-08 15:58:00,84.1,69.7,30.00,East,80,2.0,4.0,62,0.00,,,0.00,656,Wunderground v.1.15,2013-07-08 19:58:00,
2013-07-08 16:04:00,83.8,69.4,29.99,SSE,162,2.0,4.0,62,0.00,,,0.00,643,Wunderground v.1.15,2013-07-08 20:04:00,
2013-07-08 16:10:00,83.4,69.0,29.99,NE,43,2.0,2.0,62,0.00,,,0.00,613,Wunderground v.1.15,2013-07-08 20:10:00,
2013-07-08 16:16:00,83.2,68.8,29.99,SSE,161,2.0,4.0,62,0.00,,,0.00,606,Wunderground v.1.15,2013-07-08 20:16:00,
2013-07-08 16:22:00,83.4,69.0,29.99,NE,56,2.0,4.0,62,0.00,,,0.00,585,Wunderground v.1.15,2013-07-08 20:22:00,
2013-07-08 16:28:00,83.0,68.6,29.99,East,92,2.0,4.0,62,0.00,,,0.00,573,Wunderground v.1.15,2013-07-08 20:28:00,
2013-07-08 16:34:00,82.6,68.3,29.99,North,355,2.0,6.0,62,0.00,,,0.00,559,Wunderground v.1.15,2013-07-08 20:34:00,
2013-07-08 16:40:00,81.6,67.3,29.99,ESE,103,2.0,3.0,62,0.00,,,0.00,534,Wunderground v.1.15,2013-07-08 20:40:00,
2013-07-08 16:46:00,80.3,67.5,29.99,SE,143,3.0,5.0,65,0.00,,,0.00,524,Wunderground v.1.15,2013-07-08 20:46:00,
2013-07-08 16:52:00,79.9,67.1,30.00,SSE,163,2.0,3.0,65,0.00,,,0.00,501,Wunderground v.1.15,2013-07-08 20:52:00,
2013-07-08 16:58:00,79.8,67.0,30.00,NE,48,2.0,3.0,65,0.00,,,0.00,483,Wunderground v.1.15,2013-07-08 20:58:00,
2013-07-08 17:04:00,79.2,66.4,30.00,ENE,74,2.0,2.0,65,0.00,,,0.00,457,Wunderground v.1.15,2013-07-08 21:04:00,
2013-07-08 17:10:00,79.2,66.9,30.00,South,171,1.0,1.0,66,0.00,,,0.00,439,Wunderground v.1.15,2013-07-08 21:10:00,
2013-07-08 17:16:00,77.4,66.0,30.00,North,11,2.0,4.0,68,0.00,,,0.00,429,Wunderground v.1.15,2013-07-08 21:16:00,
2013-07-08 17:22:00,76.5,66.4,30.01,SSE,153,2.0,4.0,71,0.00,,,0.00,408,Wunderground v.1.15,2013-07-08 21:22:00,
2013-07-08 17:32:00,76.5,66.0,30.01,SE,145,2.0,4.0,70,0.00,,,0.00,374,Wunderground v.1.15,2013-07-08 21:32:00,
2013-07-08 17:40:00,75.8,66.1,30.01,ENE,67,2.0,2.0,72,0.00,,,0.00,107,Wunderground v.1.15,2013-07-08 21:40:00,
2013-07-08 17:46:00,75.3,65.6,30.01,SSW,194,2.0,4.0,72,0.00,,,0.00,100,Wunderground v.1.15,2013-07-08 21:46:00,
2013-07-08 17:56:00,75.1,65.5,30.01,East,94,1.0,4.0,72,0.00,,,0.00,109,Wunderground v.1.15,2013-07-08 21:56:00,
2013-07-08 18:02:00,74.9,65.3,30.01,ESE,118,1.0,4.0,72,0.00,,,0.00,95,Wunderground v.1.15,2013-07-08 22:02:00,
2013-07-08 18:08:00,74.7,65.1,30.01,SSE,150,2.0,4.0,72,0.00,,,0.00,279,Wunderground v.1.15,2013-07-08 22:08:00,
2013-07-08 18:14:00,74.4,65.2,30.01,ENE,71,1.0,6.0,73,0.00,,,0.00,54,Wunderground v.1.15,2013-07-08 22:14:00,
2013-07-08 18:20:00,73.3,64.9,30.02,SW,234,2.0,2.0,75,0.00,,,0.00,83,Wunderground v.1.15,2013-07-08 22:20:00,
2013-07-08 18:26:00,72.7,65.1,30.02,SSE,166,2.0,3.0,77,0.00,,,0.00,47,Wunderground v.1.15,2013-07-08 22:26:00,
2013-07-08 18:32:00,72.3,65.1,30.02,NE,40,2.0,5.0,78,0.00,,,0.00,46,Wunderground v.1.15,2013-07-08 22:32:00,
2013-07-08 18:38:00,71.3,64.8,30.03,ENE,75,4.0,8.0,80,0.00,,,0.00,54,Wunderground v.1.15,2013-07-08 22:38:00,
2013-07-08 18:44:00,71.5,65.0,30.03,NE,45,3.0,4.0,80,0.00,,,0.00,62,Wunderground v.1.15,2013-07-08 22:44:00,
2013-07-08 18:50:00,71.5,65.0,30.03,NE,45,2.0,2.0,80,0.00,,,0.00,74,Wunderground v.1.15,2013-07-08 22:50:00,
2013-07-08 18:56:00,71.8,65.3,30.03,SW,214,1.0,2.0,80,0.00,,,0.00,195,Wunderground v.1.15,2013-07-08 22:56:00,
2013-07-08 19:02:00,72.5,65.6,30.03,SSE,157,1.0,2.0,79,0.00,,,0.00,135,Wunderground v.1.15,2013-07-08 23:02:00,
2013-07-08 19:08:00,72.5,65.2,30.03,North,360,2.0,5.0,78,0.00,,,0.00,83,Wunderground v.1.15,2013-07-08 23:08:00,
2013-07-08 19:14:00,72.0,65.1,30.03,NE,44,2.0,3.0,79,0.00,,,0.00,51,Wunderground v.1.15,2013-07-08 23:14:00,
2013-07-08 19:20:00,71.8,65.3,30.05,ENE,58,1.0,5.0,80,0.00,,,0.00,77,Wunderground v.1.15,2013-07-08 23:20:00,
2013-07-08 19:28:00,72.0,65.5,30.05,North,5,1.0,5.0,80,0.00,,,0.00,86,Wunderground v.1.15,2013-07-08 23:28:00,
2013-07-08 19:36:00,71.8,65.7,30.04,NE,48,1.0,1.0,81,0.00,,,0.00,62,Wunderground v.1.15,2013-07-08 23:36:00,
2013-07-08 19:46:00,71.8,66.0,30.04,NE,55,1.0,1.0,82,0.00,,,0.00,19,Wunderground v.1.15,2013-07-08 23:46:00,
2013-07-08 19:52:00,71.6,65.5,30.03,NE,55,0.0,1.0,81,0.00,,,0.00,12,Wunderground v.1.15,2013-07-08 23:52:00,
2013-07-08 19:58:00,71.5,65.4,30.03,NNE,16,1.0,2.0,81,0.00,,,0.00,23,Wunderground v.1.15,2013-07-08 23:58:00,
2013-07-08 20:04:00,71.3,65.2,30.04,NNE,16,1.0,4.0,81,0.00,,,0.00,26,Wunderground v.1.15,2013-07-09 00:04:00,
2013-07-08 20:10:00,71.3,65.2,30.04,NNE,15,1.0,1.0,81,0.00,,,0.00,23,Wunderground v.1.15,2013-07-09 00:10:00,
2013-07-08 20:18:00,71.3,65.2,30.05,NNE,16,0.0,4.0,81,0.00,,,0.00,14,Wunderground v.1.15,2013-07-09 00:18:00,
2013-07-08 20:24:00,71.1,65.0,30.05,ENE,63,1.0,1.0,81,0.00,,,0.00,5,Wunderground v.1.15,2013-07-09 00:24:00,
2013-07-08 20:30:00,70.9,65.1,30.05,ENE,63,1.0,1.0,82,0.00,,,0.00,7,Wunderground v.1.15,2013-07-09 00:30:00,
2013-07-08 20:42:00,70.8,65.0,30.05,East,86,0.0,4.0,82,0.00,,,0.00,0,Wunderground v.1.15,2013-07-09 00:42:00,
2013-07-08 20:48:00,70.9,65.1,30.06,SSE,161,1.0,5.0,82,0.00,,,0.00,0,Wunderground v.1.15,2013-07-09 00:48:00,
2013-07-08 20:54:00,70.8,65.0,30.06,SSE,158,3.0,8.0,82,0.00,,,0.00,0,Wunderground v.1.15,2013-07-09 00:54:00,
2013-07-08 21:02:00,70.9,65.1,30.07,South,171,1.0,2.0,82,0.00,,,0.00,0,Wunderground v.1.15,2013-07-09 01:02:00,
2013-07-08 21:14:00,70.8,65.4,30.07,SSE,158,0.0,1.0,83,0.00,,,0.00,0,Wunderground v.1.15,2013-07-09 01:14:00,
2013-07-08 21:20:00,70.6,65.2,30.07,East,94,0.0,0.0,83,0.00,,,0.00,0,Wunderground v.1.15,2013-07-09 01:20:00,
2013-07-08 21:26:00,70.6,65.2,30.07,East,94,0.0,0.0,83,0.00,,,0.00,0,Wunderground v.1.15,2013-07-09 01:26:00,
2013-07-08 21:34:00,70.8,65.4,30.08,East,94,0.0,0.0,83,0.00,,,0.00,0,Wunderground v.1.15,2013-07-09 01:34:00,
2013-07-08 21:40:00,70.8,65.0,30.08,ENE,67,0.0,0.0,82,0.00,,,0.00,0,Wunderground v.1.15,2013-07-09 01:40:00,
2013-07-08 21:52:00,70.6,64.8,30.08,NNE,19,0.0,0.0,82,0.00,,,0.00,0,Wunderground v.1.15,2013-07-09 01:52:00,
2013-07-08 21:58:00,70.6,65.2,30.08,NNE,19,0.0,1.0,83,0.00,,,0.00,0,Wunderground v.1.15,2013-07-09 01:58:00,
2013-07-08 22:06:00,70.6,65.2,30.08,NNE,22,1.0,1.0,83,0.00,,,0.00,0,Wunderground v.1.15,2013-07-09 02:06:00,
2013-07-08 22:12:00,70.6,64.8,30.08,NNE,22,0.0,0.0,82,0.00,,,0.00,0,Wunderground v.1.15,2013-07-09 02:12:00,
2013-07-08 22:18:00,70.4,64.6,30.08,NNE,22,0.0,0.0,82,0.00,,,0.00,0,Wunderground v.1.15,2013-07-09 02:18:00,
2013-07-08 22:28:00,70.4,64.6,30.08,NNE,22,0.0,1.0,82,0.00,,,0.00,0,Wunderground v.1.15,2013-07-09 02:28:00,
2013-07-08 22:34:00,70.4,64.6,30.09,NNE,22,0.0,3.0,82,0.00,,,0.00,0,Wunderground v.1.15,2013-07-09 02:34:00,
2013-07-08 22:40:00,70.3,64.5,30.09,NNE,22,1.0,1.0,82,0.00,,,0.00,0,Wunderground v.1.15,2013-07-09 02:40:00,
2013-07-08 22:46:00,70.3,64.5,30.09,NNE,22,0.0,1.0,82,0.00,,,0.00,0,Wunderground v.1.15,2013-07-09 02:46:00,
2013-07-08 22:54:00,70.3,64.5,30.09,NNE,22,0.0,0.0,82,0.00,,,0.00,0,Wunderground v.1.15,2013-07-09 02:54:00,
2013-07-08 23:00:00,70.3,64.9,30.09,NNE,22,0.0,0.0,83,0.00,,,0.00,0,Wunderground v.1.15,2013-07-09 03:00:00,
2013-07-08 23:06:00,70.3,64.9,30.09,NNE,22,0.0,0.0,83,0.00,,,0.00,0,Wunderground v.1.15,2013-07-09 03:06:00,
2013-07-08 23:14:00,70.3,65.2,30.09,NNE,22,0.0,2.0,84,0.00,,,0.00,0,Wunderground v.1.15,2013-07-09 03:14:00,
2013-07-08 23:20:00,70.1,65.0,30.08,NNE,22,1.0,1.0,84,0.00,,,0.00,0,Wunderground v.1.15,2013-07-09 03:20:00,
2013-07-08 23:26:00,70.1,65.4,30.08,NNE,22,0.0,1.0,85,0.00,,,0.00,0,Wunderground v.1.15,2013-07-09 03:26:00,
2013-07-08 23:34:00,69.9,65.5,30.09,NNE,22,0.0,0.0,86,0.00,,,0.00,0,Wunderground v.1.15,2013-07-09 03:34:00,
2013-07-08 23:42:00,69.8,66.1,30.09,NNE,22,0.0,2.0,88,0.00,,,0.00,0,Wunderground v.1.15,2013-07-09 03:42:00,
2013-07-08 23:48:00,69.4,65.7,30.09,NNE,22,0.0,2.0,88,0.00,,,0.00,0,Wunderground v.1.15,2013-07-09 03:48:00,
2013-07-08 23:54:00,69.3,65.9,30.09,NNE,22,0.0,0.0,89,0.00,,,0.00,0,Wunderground v.1.15,2013-07-09 03:54:00,